Time,TemperatureF,DewpointF,PressureIn,WindDirection,WindDirectionDegrees,WindSpeedMPH,WindSpeedGustMPH,Humidity,HourlyPrecipIn,Conditions,Clouds,dailyrainin,SoftwareType,DateUTC
2013-06-16 00:02:00,59.0,55.0,29.99,North,0,0.0,-999.0,87,-99.99,,,-99.99,,2013-06-16 04:02:00,
2013-06-16 00:12:00,57.0,54.0,29.99,North,0,0.0,-999.0,87,-99.99,,,-99.99,,2013-06-16 04:12:00,
2013-06-16 00:23:00,57.0,54.0,29.98,North,0,0.0,-999.0,87,-99.99,,,-99.99,,2013-06-16 04:23:00,
2013-06-16 00:34:00,57.0,54.0,29.99,North,0,0.0,-999.0,87,-99.99,,,-99.99,,2013-06-16 04:34:00,
2013-06-16 00:43:00,57.0,54.0,29.99,North,0,0.0,-999.0,87,-99.99,,,-99.99,,2013-06-16 04:43:00,
2013-06-16 00:53:00,57.0,54.0,29.98,North,0,0.0,-999.0,87,-99.99,,,-99.99,,2013-06-16 04:53:00,
2013-06-16 01:02:00,57.0,54.0,29.98,North,0,0.0,-999.0,87,-99.99,,,-99.99,,2013-06-16 05:02:00,
2013-06-16 01:12:00,57.0,54.0,29.98,SSW,210,3.0,-999.0,87,-99.99,,,-99.99,,2013-06-16 05:12:00,
2013-06-16 01:22:00,55.0,54.0,29.98,North,0,0.0,-999.0,93,-99.99,,,-99.99,,2013-06-16 05:22:00,
2013-06-16 01:34:00,55.0,54.0,29.98,South,190,3.0,-999.0,93,-99.99,,,-99.99,,2013-06-16 05:34:00,
2013-06-16 01:43:00,55.0,54.0,29.99,North,0,0.0,-999.0,93,-99.99,,,-99.99,,2013-06-16 05:43:00,
2013-06-16 01:52:00,55.0,54.0,29.98,North,0,0.0,-999.0,93,-99.99,,,-99.99,,2013-06-16 05:52:00,
2013-06-16 02:01:00,55.0,54.0,29.98,North,0,0.0,-999.0,93,-99.99,,,-99.99,,2013-06-16 06:01:00,
2013-06-16 02:12:00,55.0,54.0,29.99,North,0,0.0,-999.0,93,-99.99,,,-99.99,,2013-06-16 06:12:00,
2013-06-16 02:23:00,55.0,54.0,29.98,North,0,0.0,-999.0,93,-99.99,,,-99.99,,2013-06-16 06:23:00,
2013-06-16 02:33:00,55.0,54.0,29.99,North,0,0.0,-999.0,93,-99.99,,,-99.99,,2013-06-16 06:33:00,
2013-06-16 02:43:00,55.0,54.0,29.99,North,0,0.0,-999.0,93,-99.99,,,-99.99,,2013-06-16 06:43:00,
2013-06-16 02:52:00,55.0,54.0,29.99,North,0,0.0,-999.0,93,-99.99,,,-99.99,,2013-06-16 06:52:00,
2013-06-16 03:01:00,55.0,54.0,29.99,North,0,0.0,-999.0,93,-99.99,,,-99.99,,2013-06-16 07:01:00,
2013-06-16 03:12:00,55.0,54.0,29.99,North,0,0.0,-999.0,93,-99.99,,,-99.99,,2013-06-16 07:12:00,
2013-06-16 03:23:00,55.0,54.0,29.98,North,0,0.0,-999.0,93,-99.99,,,-99.99,,2013-06-16 07:23:00,
2013-06-16 03:33:00,55.0,54.0,29.97,North,0,0.0,-999.0,93,-99.99,,,-99.99,,2013-06-16 07:33:00,
2013-06-16 03:43:00,55.0,54.0,29.97,North,0,0.0,-999.0,93,-99.99,,,-99.99,,2013-06-16 07:43:00,
2013-06-16 03:53:00,55.0,54.0,29.97,North,0,0.0,-999.0,93,-99.99,,,-99.99,,2013-06-16 07:53:00,
2013-06-16 04:02:00,55.0,52.0,29.97,North,0,0.0,-999.0,87,-99.99,,,-99.99,,2013-06-16 08:02:00,
2013-06-16 04:12:00,54.0,52.0,29.97,North,0,0.0,-999.0,93,-99.99,,,-99.99,,2013-06-16 08:12:00,
2013-06-16 04:22:00,54.0,52.0,29.97,North,0,0.0,-999.0,93,-99.99,,,-99.99,,2013-06-16 08:22:00,
2013-06-16 04:33:00,54.0,52.0,29.97,SSW,200,3.0,-999.0,93,-99.99,,,-99.99,,2013-06-16 08:33:00,
2013-06-16 04:43:00,54.0,52.0,29.97,North,0,0.0,-999.0,93,-99.99,,,-99.99,,2013-06-16 08:43:00,
2013-06-16 04:54:00,54.0,52.0,29.97,North,0,0.0,-999.0,93,-99.99,,,-99.99,,2013-06-16 08:54:00,
2013-06-16 05:02:00,54.0,52.0,29.97,North,0,0.0,-999.0,93,-99.99,,,-99.99,,2013-06-16 09:02:00,
2013-06-16 05:11:00,54.0,52.0,29.97,North,0,0.0,-999.0,93,-99.99,,,-99.99,,2013-06-16 09:11:00,
2013-06-16 05:22:00,54.0,52.0,29.97,North,0,0.0,-999.0,93,-99.99,,,-99.99,,2013-06-16 09:22:00,
2013-06-16 05:33:00,54.0,52.0,29.98,North,0,0.0,-999.0,93,-99.99,,,-99.99,,2013-06-16 09:33:00,
2013-06-16 05:43:00,54.0,52.0,29.97,North,0,0.0,-999.0,93,-99.99,,,-99.99,,2013-06-16 09:43:00,
2013-06-16 05:52:00,54.0,52.0,29.97,North,0,0.0,-999.0,93,-99.99,,,-99.99,,2013-06-16 09:52:00,
2013-06-16 06:02:00,54.0,52.0,29.97,North,0,0.0,-999.0,93,-99.99,,,-99.99,,2013-06-16 10:02:00,
2013-06-16 06:12:00,54.0,52.0,29.97,North,0,0.0,-999.0,93,-99.99,,,-99.99,,2013-06-16 10:12:00,
2013-06-16 06:22:00,54.0,52.0,29.97,North,0,0.0,-999.0,93,-99.99,,,-99.99,,2013-06-16 10:22:00,
2013-06-16 06:33:00,54.0,52.0,29.97,North,0,0.0,-999.0,93,-99.99,,,-99.99,,2013-06-16 10:33:00,
2013-06-16 06:43:00,54.0,54.0,29.97,North,0,0.0,-999.0,100,-99.99,,,-99.99,,2013-06-16 10:43:00,
2013-06-16 06:53:00,55.0,54.0,29.97,North,0,0.0,-999.0,93,-99.99,,,-99.99,,2013-06-16 10:53:00,
2013-06-16 07:02:00,57.0,54.0,29.97,North,0,0.0,-999.0,87,-99.99,,,-99.99,,2013-06-16 11:02:00,
2013-06-16 07:12:00,57.0,55.0,29.97,North,0,0.0,-999.0,93,-99.99,,,-99.99,,2013-06-16 11:12:00,
2013-06-16 07:22:00,61.0,55.0,29.97,North,0,0.0,-999.0,82,-99.99,,,-99.99,,2013-06-16 11:22:00,
2013-06-16 07:34:00,61.0,55.0,29.97,North,0,0.0,-999.0,82,-99.99,,,-99.99,,2013-06-16 11:34:00,
2013-06-16 07:52:00,61.0,55.0,29.96,South,180,5.0,-999.0,82,-99.99,,,-99.99,,2013-06-16 11:52:00,
2013-06-16 08:02:00,61.0,55.0,29.96,North,0,0.0,-999.0,82,-99.99,,,-99.99,,2013-06-16 12:02:00,
2013-06-16 08:12:00,63.0,55.0,29.96,North,0,0.0,-999.0,77,-99.99,,,-99.99,,2013-06-16 12:12:00,
2013-06-16 08:22:00,63.0,55.0,29.96,North,0,0.0,-999.0,77,-99.99,,,-99.99,,2013-06-16 12:22:00,
2013-06-16 08:33:00,64.0,57.0,29.96,SSW,200,3.0,-999.0,77,-99.99,,,-99.99,,2013-06-16 12:33:00,
2013-06-16 09:01:00,68.0,55.0,29.94,SSW,210,6.0,-999.0,64,-99.99,,,-99.99,,2013-06-16 13:01:00,
2013-06-16 09:12:00,68.0,55.0,29.95,SW,220,5.0,-999.0,64,-99.99,,,-99.99,,2013-06-16 13:12:00,
2013-06-16 09:22:00,70.0,57.0,29.94,SW,220,3.0,-999.0,64,-99.99,,,-99.99,,2013-06-16 13:22:00,
2013-06-16 09:34:00,70.0,57.0,29.93,SSW,200,6.0,-999.0,64,-99.99,,,-99.99,,2013-06-16 13:34:00,
2013-06-16 09:43:00,70.0,57.0,29.93,SSW,200,7.0,-999.0,64,-99.99,,,-99.99,,2013-06-16 13:43:00,
2013-06-16 09:53:00,72.0,57.0,29.93,SSW,210,8.0,-999.0,60,-99.99,,,-99.99,,2013-06-16 13:53:00,
2013-06-16 10:02:00,72.0,57.0,29.92,SSW,200,8.0,-999.0,60,-99.99,,,-99.99,,2013-06-16 14:02:00,
2013-06-16 10:12:00,72.0,57.0,29.91,SSW,200,6.0,-999.0,60,-99.99,,,-99.99,,2013-06-16 14:12:00,
2013-06-16 10:22:00,72.0,57.0,29.90,SSW,200,8.0,-999.0,60,-99.99,,,-99.99,,2013-06-16 14:22:00,
2013-06-16 10:34:00,72.0,57.0,29.90,South,190,5.0,-999.0,60,-99.99,,,-99.99,,2013-06-16 14:34:00,
2013-06-16 10:43:00,72.0,57.0,29.90,South,190,6.0,-999.0,60,-99.99,,,-99.99,,2013-06-16 14:43:00,
2013-06-16 10:52:00,72.0,57.0,29.89,SSW,210,8.0,-999.0,60,-99.99,,,-99.99,,2013-06-16 14:52:00,
2013-06-16 11:02:00,72.0,59.0,29.89,South,190,8.0,-999.0,64,-99.99,,,-99.99,,2013-06-16 15:02:00,
2013-06-16 11:12:00,73.0,61.0,29.89,SSW,210,8.0,-999.0,64,-99.99,,,-99.99,,2013-06-16 15:12:00,
2013-06-16 11:23:00,73.0,61.0,29.88,SSW,200,9.0,-999.0,64,-99.99,,,-99.99,,2013-06-16 15:23:00,
2013-06-16 11:34:00,75.0,61.0,29.87,South,180,9.0,-999.0,60,-99.99,,,-99.99,,2013-06-16 15:34:00,
2013-06-16 11:43:00,75.0,61.0,29.87,SSW,200,10.0,-999.0,60,-99.99,,,-99.99,,2013-06-16 15:43:00,
2013-06-16 11:52:00,75.0,57.0,29.87,SSW,200,12.0,18.0,53,-99.99,,,-99.99,,2013-06-16 15:52:00,
2013-06-16 12:02:00,75.0,57.0,29.86,SSW,200,9.0,-999.0,53,-99.99,,,-99.99,,2013-06-16 16:02:00,
2013-06-16 12:12:00,75.0,57.0,29.85,South,190,10.0,-999.0,53,-99.99,,,-99.99,,2013-06-16 16:12:00,
2013-06-16 12:23:00,75.0,57.0,29.85,SSW,210,9.0,18.0,53,-99.99,,,-99.99,,2013-06-16 16:23:00,
2013-06-16 12:33:00,75.0,57.0,29.84,SSW,210,9.0,-999.0,53,-99.99,,,-99.99,,2013-06-16 16:33:00,
2013-06-16 12:43:00,75.0,57.0,29.84,SSW,200,8.0,-999.0,53,-99.99,,,-99.99,,2013-06-16 16:43:00,
2013-06-16 12:53:00,75.0,59.0,29.83,SSW,200,10.0,-999.0,57,-99.99,,,-99.99,,2013-06-16 16:53:00,
2013-06-16 13:02:00,75.0,59.0,29.83,South,190,12.0,-999.0,57,-99.99,,,-99.99,,2013-06-16 17:02:00,
2013-06-16 13:12:00,73.0,61.0,29.82,South,190,7.0,-999.0,64,-99.99,,,-99.99,,2013-06-16 17:12:00,
2013-06-16 13:22:00,73.0,61.0,29.82,South,180,6.0,-999.0,64,-99.99,,,-99.99,,2013-06-16 17:22:00,
2013-06-16 13:34:00,73.0,61.0,29.81,South,180,6.0,-999.0,64,-99.99,,,-99.99,,2013-06-16 17:34:00,
2013-06-16 13:43:00,73.0,61.0,29.80,South,180,6.0,-999.0,64,-99.99,,,-99.99,,2013-06-16 17:43:00,
2013-06-16 13:53:00,73.0,61.0,29.79,South,180,8.0,-999.0,64,-99.99,,,-99.99,,2013-06-16 17:53:00,
2013-06-16 14:02:00,73.0,61.0,29.78,South,190,7.0,-999.0,64,-99.99,,,-99.99,,2013-06-16 18:02:00,
2013-06-16 14:12:00,73.0,61.0,29.78,South,190,8.0,-999.0,64,-99.99,,,-99.99,,2013-06-16 18:12:00,
2013-06-16 14:22:00,75.0,61.0,29.76,South,190,12.0,-999.0,60,-99.99,,,-99.99,,2013-06-16 18:22:00,
2013-06-16 14:34:00,75.0,61.0,29.75,South,190,14.0,18.0,60,-99.99,,,-99.99,,2013-06-16 18:34:00,
2013-06-16 14:43:00,77.0,61.0,29.76,SSW,200,13.0,18.0,57,-99.99,,,-99.99,,2013-06-16 18:43:00,
2013-06-16 14:52:00,77.0,61.0,29.75,SSW,200,13.0,17.0,57,-99.99,,,-99.99,,2013-06-16 18:52:00,
2013-06-16 15:01:00,77.0,63.0,29.74,SSW,200,10.0,-999.0,61,-99.99,,,-99.99,,2013-06-16 19:01:00,
2013-06-16 15:12:00,79.0,63.0,29.74,SSW,210,10.0,-999.0,57,-99.99,,,-99.99,,2013-06-16 19:12:00,
2013-06-16 15:22:00,79.0,61.0,29.74,SSW,210,15.0,21.0,54,-99.99,,,-99.99,,2013-06-16 19:22:00,
2013-06-16 15:34:00,79.0,61.0,29.74,SW,220,13.0,21.0,54,-99.99,,,-99.99,,2013-06-16 19:34:00,
2013-06-16 15:53:00,79.0,61.0,29.74,SSW,210,14.0,20.0,54,-99.99,,,-99.99,,2013-06-16 19:53:00,
2013-06-16 16:02:00,79.0,61.0,29.73,SSW,210,15.0,20.0,54,-99.99,,,-99.99,,2013-06-16 20:02:00,
2013-06-16 16:12:00,79.0,61.0,29.73,SSW,210,17.0,21.0,54,-99.99,,,-99.99,,2013-06-16 20:12:00,
2013-06-16 16:22:00,79.0,61.0,29.73,SSW,210,14.0,24.0,54,-99.99,,,-99.99,,2013-06-16 20:22:00,
2013-06-16 16:33:00,79.0,61.0,29.73,SSW,210,16.0,24.0,54,-99.99,,,-99.99,,2013-06-16 20:33:00,
2013-06-16 16:42:00,79.0,61.0,29.73,SSW,210,15.0,22.0,54,-99.99,,,-99.99,,2013-06-16 20:42:00,
2013-06-16 16:53:00,79.0,61.0,29.72,SSW,210,13.0,20.0,54,-99.99,,,-99.99,,2013-06-16 20:53:00,
2013-06-16 17:02:00,79.0,61.0,29.72,SSW,210,13.0,-999.0,54,-99.99,,,-99.99,,2013-06-16 21:02:00,
2013-06-16 17:11:00,79.0,61.0,29.72,SSW,210,13.0,17.0,54,-99.99,,,-99.99,,2013-06-16 21:11:00,
2013-06-16 17:22:00,79.0,61.0,29.72,SSW,200,12.0,18.0,54,-99.99,,,-99.99,,2013-06-16 21:22:00,
2013-06-16 17:33:00,79.0,61.0,29.72,SSW,200,12.0,16.0,54,-99.99,,,-99.99,,2013-06-16 21:33:00,
2013-06-16 17:42:00,79.0,61.0,29.72,SSW,210,10.0,-999.0,54,-99.99,,,-99.99,,2013-06-16 21:42:00,
2013-06-16 17:53:00,79.0,61.0,29.72,SSW,210,13.0,18.0,54,-99.99,,,-99.99,,2013-06-16 21:53:00,
2013-06-16 18:01:00,79.0,61.0,29.72,SSW,210,12.0,18.0,54,-99.99,,,-99.99,,2013-06-16 22:01:00,
2013-06-16 18:12:00,79.0,63.0,29.72,SSW,210,9.0,-999.0,57,-99.99,,,-99.99,,2013-06-16 22:12:00,
2013-06-16 18:22:00,79.0,63.0,29.73,SSW,200,8.0,-999.0,57,-99.99,,,-99.99,,2013-06-16 22:22:00,
2013-06-16 18:32:00,79.0,63.0,29.73,SSW,210,7.0,-999.0,57,-99.99,,,-99.99,,2013-06-16 22:32:00,
2013-06-16 18:42:00,79.0,63.0,29.73,SSW,210,5.0,-999.0,57,-99.99,,,-99.99,,2013-06-16 22:42:00,
2013-06-16 18:52:00,79.0,63.0,29.73,SSW,210,7.0,-999.0,57,-99.99,,,-99.99,,2013-06-16 22:52:00,
2013-06-16 19:02:00,79.0,63.0,29.73,SW,220,5.0,-999.0,57,-99.99,,,-99.99,,2013-06-16 23:02:00,
2013-06-16 19:11:00,77.0,63.0,29.74,SW,220,3.0,-999.0,61,-99.99,,,-99.99,,2013-06-16 23:11:00,
2013-06-16 19:22:00,77.0,64.0,29.74,SSW,210,5.0,-999.0,65,-99.99,,,-99.99,,2013-06-16 23:22:00,
2013-06-16 19:32:00,77.0,64.0,29.74,SSW,210,3.0,-999.0,65,-99.99,,,-99.99,,2013-06-16 23:32:00,
2013-06-16 19:42:00,77.0,64.0,29.75,North,0,0.0,-999.0,65,-99.99,,,-99.99,,2013-06-16 23:42:00,
2013-06-16 19:52:00,77.0,64.0,29.75,North,0,0.0,-999.0,65,-99.99,,,-99.99,,2013-06-16 23:52:00,
2013-06-16 20:02:00,77.0,64.0,29.76,SSW,210,3.0,-999.0,65,-99.99,,,-99.99,,2013-06-17 00:02:00,
2013-06-16 20:12:00,77.0,64.0,29.76,North,0,0.0,-999.0,65,-99.99,,,-99.99,,2013-06-17 00:12:00,
2013-06-16 20:22:00,77.0,64.0,29.77,North,0,0.0,-999.0,65,-99.99,,,-99.99,,2013-06-17 00:22:00,
2013-06-16 20:32:00,77.0,64.0,29.77,West,270,3.0,-999.0,65,-99.99,,,-99.99,,2013-06-17 00:32:00,
2013-06-16 20:43:00,75.0,64.0,29.77,North,0,0.0,-999.0,69,-99.99,,,-99.99,,2013-06-17 00:43:00,
2013-06-16 20:52:00,75.0,64.0,29.78,North,0,0.0,-999.0,69,-99.99,,,-99.99,,2013-06-17 00:52:00,
2013-06-16 21:02:00,75.0,64.0,29.78,North,0,0.0,-999.0,69,-99.99,,,-99.99,,2013-06-17 01:02:00,
2013-06-16 21:12:00,73.0,66.0,29.79,North,0,0.0,-999.0,78,-99.99,,,-99.99,,2013-06-17 01:12:00,
2013-06-16 21:22:00,72.0,66.0,29.80,North,0,0.0,-999.0,83,-99.99,,,-99.99,,2013-06-17 01:22:00,
2013-06-16 21:32:00,72.0,66.0,29.80,North,0,0.0,-999.0,83,-99.99,,,-99.99,,2013-06-17 01:32:00,
2013-06-16 21:43:00,72.0,66.0,29.81,North,0,0.0,-999.0,83,-99.99,,,-99.99,,2013-06-17 01:43:00,
2013-06-16 21:53:00,73.0,64.0,29.82,NNE,30,3.0,-999.0,73,-99.99,,,-99.99,,2013-06-17 01:53:00,
2013-06-16 22:03:00,72.0,64.0,29.82,NNW,330,3.0,-999.0,78,-99.99,,,-99.99,,2013-06-17 02:03:00,
2013-06-16 22:12:00,73.0,64.0,29.83,North,10,3.0,-999.0,73,-99.99,,,-99.99,,2013-06-17 02:12:00,
2013-06-16 22:22:00,72.0,64.0,29.83,North,0,0.0,-999.0,78,-99.99,,,-99.99,,2013-06-17 02:22:00,
2013-06-16 22:34:00,72.0,64.0,29.84,NNE,30,5.0,-999.0,78,-99.99,,,-99.99,,2013-06-17 02:34:00,
2013-06-16 22:43:00,70.0,64.0,29.84,North,0,0.0,-999.0,82,-99.99,,,-99.99,,2013-06-17 02:43:00,
2013-06-16 22:53:00,68.0,63.0,29.83,North,0,0.0,-999.0,82,-99.99,,,-99.99,,2013-06-17 02:53:00,
2013-06-16 23:02:00,68.0,63.0,29.84,North,0,0.0,-999.0,82,-99.99,,,-99.99,,2013-06-17 03:02:00,
2013-06-16 23:12:00,68.0,63.0,29.83,North,0,0.0,-999.0,82,-99.99,,,-99.99,,2013-06-17 03:12:00,
2013-06-16 23:22:00,70.0,63.0,29.84,NE,50,7.0,-999.0,77,-99.99,,,-99.99,,2013-06-17 03:22:00,
2013-06-16 23:33:00,68.0,63.0,29.84,North,0,0.0,-999.0,82,-99.99,,,-99.99,,2013-06-17 03:33:00,
2013-06-16 23:44:00,70.0,63.0,29.84,North,350,3.0,-999.0,77,-99.99,,,-99.99,,2013-06-17 03:44:00,
2013-06-16 23:53:00,66.0,63.0,29.84,North,0,0.0,-999.0,88,-99.99,,,-99.99,,2013-06-17 03:53:00,